Regional Weather Roundup
Issued by NWS

Home | Current Version | Previous Version | Text Only | Print | Product List | Glossary On
Versions: 1 2 3 4 5 6 7 8 9 10 11 12 13 14 15 16 17 18 19 20 21 22 23 24 25 26 27 28 29 30 31 32 33 34 35 36 37 38 39 40 41 42 43 44 45 46 47 48 49 50
000
ASUS44 KJAN 191210
RWRMS

MISSISSIPPI HOURLY WEATHER ROUNDUP
NATIONAL WEATHER SERVICE JACKSON MS
700 AM CDT FRI SEP 19 2014

NOTE: "FAIR: INDICATES FEW OR NO CLOUDS BELOW 12,000 FEET WITH NO
SIGNIFICANT WEATHER AND/OR OBSTRUCTIONS TO VISIBILITY.

MSZ001>002-007>008-010>013-018>021-025>028-034>036-191300-
NORTHWEST MISSISSIPPI

CITY           SKY/WX    TMP DP  RH WIND       PRES   REMARKS
CLARKSDALE     CLOUDY    64  64 100 CALM      30.00R VSB<1/4
CLEVELAND      CLOUDY    65  65 100 CALM      29.97R FOG
GREENWOOD      CLOUDY    67  65  93 E3        29.98R
6HR MIN TEMP:  66; 6HR MAX TEMP:  70;

GREENVILLE     CLEAR     66  65  96 N5        29.96S
6HR MIN TEMP:  64; 6HR MAX TEMP:  71;

GRENADA        CLOUDY    66  66 100 E8        30.00R
OLIVE BRANCH   FOG       64  64 100 CALM      30.01R VSB 1/4
OXFORD         FAIR      61  61 100 CALM      30.02R FOG
TUNICA         FOG       63  61  94 N3        30.01R VSB<1/4
$$

MSZ003>006-009-014>017-022>024-029>033-037>039-191300-
NORTHEAST MISSISSIPPI

CITY           SKY/WX    TMP DP  RH WIND       PRES   REMARKS
COLUMBUS AFB   FOG       67  67 100 CALM      30.01R VSB 1/4
6HR MIN TEMP:  65; 6HR MAX TEMP:  69;

CORINTH        FOG       66  64  94 CALM      30.01R VSB 3/4
GOLDN TRIANGLE CLEAR     63  61  94 CALM      30.01R FOG
STARKVILLE     FOG       63  63 100 CALM      30.00S VSB 1
TUPELO         FOG       66  65  96 NE3       30.01R VSB 1/4
6HR MIN TEMP:  66; 6HR MAX TEMP:  69;

$$

MSZ040-058-191300-
CENTRAL MISSISSIPPI

CITY           SKY/WX    TMP DP  RH WIND       PRES   REMARKS
JACKSON INTL   PTCLDY    67  65  93 CALM      29.97R
6HR MIN TEMP:  66; 6HR MAX TEMP:  70;

JACKSON HAWKNS CLEAR     68  65  90 E3        29.98R
6HR MIN TEMP:  67; 6HR MAX TEMP:  72;

MERIDIAN KEY   CLEAR     69  67  93 NE8       29.99R
6HR MIN TEMP:  68; 6HR MAX TEMP:  70; 6HR PCP:  0.01;

MERIDIAN NAS   PTCLDY    69  67  93 CALM      30.00R
6HR MIN TEMP:  69; 6HR MAX TEMP:  70;

RAYMOND        FAIR      64  59  82 CALM      29.98R HAZE
VICKSBURG      CLEAR     66  64  93 CALM      29.96R
6HR MIN TEMP:  65; 6HR MAX TEMP:  72;

$$

MSZ059>079-191300-
SOUTH MISSISSIPPI

CITY           SKY/WX    TMP DP  RH WIND       PRES   REMARKS
BROOKHAVEN     FOG       66  66 100 CALM      29.98R VSB 1/4
COLUMBIA       FAIR      68  66  94 CALM      29.96R
HATTIESBURG    PTCLDY    70  67  90 CALM      29.97R
6HR MIN TEMP:  69; 6HR MAX TEMP:  72;

MCCOMB         PTCLDY    70  68  93 NE3       29.96R FOG
6HR MIN TEMP:  69; 6HR MAX TEMP:  72; 6HR PCP:  0.01;

NATCHEZ        CLEAR     70  66  88 CALM      29.96R
6HR MIN TEMP:  70; 6HR MAX TEMP:  72;

PINE BELT      PTCLDY   N/A N/A N/A N3        29.97S
$$

MSZ080>082-191300-
COASTAL MISSISSIPPI

CITY           SKY/WX    TMP DP  RH WIND       PRES   REMARKS
BAY ST LOUIS   PTCLDY    72  66  83 CALM      29.95
BILOXI         CLOUDY    76  71  84 E6        29.95R
6HR MIN TEMP:  72; 6HR MAX TEMP:  76; 6HR PCP:  0.04;

PASCAGOULA     LGT RAIN  70  69  97 CALM      29.95S
6HR MIN TEMP:  70; 6HR MAX TEMP:  72; 6HR PCP:  0.02;

GULFPORT       CLOUDY    72  70  93 NE6       29.94R
6HR MIN TEMP:  71; 6HR MAX TEMP:  73;

$$



USA.gov is the U.S. government's official web portal to all federal, state and local government web resources and services.